Weather History for Melbourne, FL

Change the Weather History Date:

Sunday, December 16, 2012

  Actual Average Record
Temperature  
Mean Temperature 69 °F 63 °F  
Max Temperature 78 °F 73 °F 89 °F (1961)
Min Temperature 60 °F 53 °F 29 °F (1968)
Degree Days  
Heating Degree Days 0 4  
Month to date heating degree days 2 56  
Since 1 July heating degree days 75 98  
Cooling Degree Days 4 2  
Month to date cooling degree days 90 45  
Year to date cooling degree days 3484 3240  
Growing Degree Days 19 (Base 50)    
Moisture  
Dew Point 66 °F    
Average Humidity 85    
Maximum Humidity 100    
Minimum Humidity 69    
Precipitation  
Precipitation 0.06 in 0.08 in 1.90 in (1977)
Month to date precipitation 1.87 1.35  
Year to date precipitation 39.44 50.78  
Sea Level Pressure  
Sea Level Pressure 30.02 in    
Wind  
Wind Speed 5 mph (SE)    
Max Wind Speed 14 mph    
Max Gust Speed 16 mph    
Visibility 9 miles    
Events Rain    
T = Trace of Precipitation, MM = Missing Value Source: NWS Daily Summary

Daily Weather History Graph

Daily Weather History Graph

Search for Another Location

Airport:

Trip Planner

Search our weather history database for the weather conditions in past years. The results will help you decide how hot, cold, wet, or windy it might be!

Date:

Astronomy

Dec. 16, 2012 Rise Set
Actual Time 7:07 AM EST 5:29 PM EST
Civil Twilight 6:41 AM EST 5:55 PM EST
Nautical Twilight 6:12 AM EST 6:24 PM EST
Astronomical Twilight 5:43 AM EST 6:53 PM EST
Moon 9:54 AM EST (12/16) 9:25 PM EST (12/16)
Length of Visible Light 11h 13m
Length of Day
10h 22m
Waxing Crescent, 16% of the Moon is Illuminated
Dec 16
Waxing Crescent
Dec 20
First Quarter
Dec 28
Full
Jan 4
Last Quarter
Jan 11
New

Hourly Weather History & Observations

Time (EST) Temp. Dew Point Humidity Pressure Visibility Wind Dir Wind Speed Gust Speed Precip Events Conditions
12:53 AM 64.0 °F 63.0 °F 96% 30.06 in 10.0 mi Calm Calm - N/A   Partly Cloudy
1:53 AM 61.0 °F 60.1 °F 97% 30.05 in 10.0 mi WNW 3.5 mph - N/A   Clear
2:53 AM 63.0 °F 62.1 °F 97% 30.04 in 9.0 mi East 4.6 mph - 0.00 in Rain Light Rain
3:53 AM 63.0 °F 63.0 °F 100% 30.04 in 6.0 mi Calm Calm - 0.00 in   Scattered Clouds
4:53 AM 62.1 °F 61.0 °F 96% 30.04 in 9.0 mi Calm Calm - N/A   Clear
5:53 AM 61.0 °F 60.1 °F 97% 30.04 in 10.0 mi NW 4.6 mph - N/A   Clear
6:53 AM 62.1 °F 62.1 °F 100% 30.05 in 10.0 mi WNW 3.5 mph - N/A   Mostly Cloudy
7:53 AM 66.0 °F 66.0 °F 100% 30.06 in 10.0 mi Calm Calm - 0.05 in   Overcast
8:53 AM 71.1 °F 69.1 °F 93% 30.07 in 10.0 mi NE 4.6 mph - N/A   Partly Cloudy
9:53 AM 73.0 °F 69.1 °F 87% 30.07 in 10.0 mi ENE 3.5 mph - N/A   Scattered Clouds
10:37 AM 73.4 °F 66.2 °F 78% 30.06 in 10.0 mi East 4.6 mph - N/A   Mostly Cloudy
10:53 AM 73.9 °F 66.9 °F 79% 30.06 in 10.0 mi East 6.9 mph - 0.00 in Rain Light Rain
11:10 AM 71.6 °F 66.2 °F 83% 30.06 in 2.5 mi SSW 6.9 mph - 0.01 in Rain Light Rain
11:27 AM 73.4 °F 69.8 °F 88% 30.05 in 10.0 mi South 8.1 mph - 0.01 in   Mostly Cloudy
11:53 AM 73.0 °F 68.0 °F 84% 30.05 in 10.0 mi South 11.5 mph - 0.01 in   Mostly Cloudy
12:00 PM 73.4 °F 68.0 °F 83% 30.05 in 10.0 mi South 9.2 mph - N/A   Overcast
12:53 PM 77.0 °F 66.0 °F 69% 30.01 in 10.0 mi SE 8.1 mph - N/A   Mostly Cloudy
1:53 PM 75.0 °F 66.9 °F 76% 29.99 in 10.0 mi SE 11.5 mph - 0.00 in   Overcast
2:27 PM 71.6 °F 66.2 °F 83% 29.98 in 2.5 mi SE 4.6 mph - 0.00 in Rain Light Rain
2:34 PM 73.4 °F 68.0 °F 83% 29.98 in 4.0 mi Calm Calm - 0.00 in Rain Light Rain
2:53 PM 73.9 °F 68.0 °F 82% 29.98 in 10.0 mi ESE 6.9 mph - 0.00 in   Overcast
3:53 PM 73.9 °F 68.0 °F 82% 29.98 in 10.0 mi ESE 9.2 mph - 0.00 in   Partly Cloudy
4:53 PM 73.0 °F 66.9 °F 81% 29.98 in 10.0 mi ESE 4.6 mph - N/A   Mostly Cloudy
5:53 PM 72.0 °F 66.0 °F 81% 29.99 in 10.0 mi SSE 5.8 mph - N/A   Overcast
6:53 PM 71.1 °F 66.0 °F 84% 29.99 in 10.0 mi SSE 6.9 mph - N/A   Mostly Cloudy
7:53 PM 71.1 °F 66.9 °F 87% 29.98 in 10.0 mi SSE 5.8 mph - N/A   Overcast
8:53 PM 71.1 °F 68.0 °F 90% 29.98 in 10.0 mi SSE 5.8 mph - N/A   Overcast
9:53 PM 71.1 °F 68.0 °F 90% 29.99 in 10.0 mi South 4.6 mph - N/A   Overcast
10:53 PM 71.1 °F 66.9 °F 87% 30.00 in 10.0 mi SSE 5.8 mph - N/A   Overcast
11:53 PM 69.1 °F 66.0 °F 90% 30.00 in 10.0 mi South 4.6 mph - N/A   Mostly Cloudy